Terminal Aerodrome Forecast
Issued by NWS Brownsville, TX

Home | Current Version | Previous Version | Text Only | Print | Product List | Glossary On
Versions: 1 2 3 4 5 6 7 8 9 10 11 12 13 14 15 16
000
FTUS44 KBRO 270522
TAFBRO
TAF
KBRO 270522Z 2706/2806 14008KT P6SM SCT025
      TEMPO 2709/2713 5SM BR BKN025
     FM271400 16012KT P6SM BKN035
     FM271800 17015G22KT P6SM SCT040
     FM280100 14011KT P6SM FEW025 SCT250=

USA.gov is the U.S. government's official web portal to all federal, state and local government web resources and services.